KUG1 HLLB-DTTA

Flight info

Callsign KUG1
Flight time 1h 34m
Altitude 36000
Route RIGEM1C RIGEM M622 INDOT/N0467F300 M622 GZO M978 DOBIX/N0386F180 M978 SONAK UM978 DIDON
Aircraft A346/H-SDE2E3FGHIJ3J4J5M1RWXY/LB1D1

Departure

Time 2026-05-07 21:42
Airport Benina International Airport (HLLB)

Arrival

Time 2026-05-07 23:17
Airport Tunis Carthage International Airport (DTTA)
Time Latitude Longitude Altitude Speed Heading
2026-05-07 21:08 32.08684 20.26753 418 ft 0 kts 209°
2026-05-07 21:27 32.08692 20.26758 410 ft 3 kts 203°
2026-05-07 21:27 32.08708 20.26764 411 ft 3 kts 181°
2026-05-07 21:27 32.08721 20.26762 411 ft 3 kts 152°
2026-05-07 21:28 32.08729 20.26754 409 ft 3 kts 120°
2026-05-07 21:28 32.08734 20.26738 409 ft 3 kts 94°
2026-05-07 21:28 32.08734 20.26726 409 ft 0 kts 85°
2026-05-07 21:33 32.08734 20.26725 409 ft 1 kts 85°
2026-05-07 21:33 32.08734 20.26723 409 ft 0 kts 85°
2026-05-07 21:34 32.08733 20.26714 409 ft 0 kts 85°
2026-05-07 21:35 32.08733 20.26713 409 ft 0 kts 85°
2026-05-07 21:35 32.08733 20.26709 409 ft 0 kts 85°
2026-05-07 21:35 32.08732 20.26696 409 ft 4 kts 85°
2026-05-07 21:35 32.08731 20.26685 409 ft 0 kts 85°
2026-05-07 21:37 32.08732 20.26698 409 ft 13 kts 85°
2026-05-07 21:37 32.08747 20.26913 413 ft 20 kts 85°
2026-05-07 21:37 32.08783 20.27047 413 ft 12 kts 15°
2026-05-07 21:37 32.08864 20.27013 411 ft 14 kts 322°
2026-05-07 21:38 32.08950 20.26936 411 ft 17 kts 327°
2026-05-07 21:38 32.09062 20.26856 412 ft 20 kts 330°
2026-05-07 21:38 32.09193 20.26768 416 ft 23 kts 332°
2026-05-07 21:38 32.09340 20.26676 413 ft 25 kts 332°
2026-05-07 21:39 32.09500 20.26573 409 ft 27 kts 332°
2026-05-07 21:39 32.09671 20.26457 417 ft 34 kts 329°
2026-05-07 21:39 32.09937 20.26267 411 ft 47 kts 329°
2026-05-07 21:39 32.10186 20.26103 412 ft 40 kts 332°
2026-05-07 21:40 32.10405 20.25964 413 ft 33 kts 330°
2026-05-07 21:40 32.10605 20.25828 411 ft 34 kts 330°
2026-05-07 21:40 32.10802 20.25695 413 ft 15 kts 330°
2026-05-07 21:40 32.10899 20.25702 411 ft 17 kts 38°
2026-05-07 21:41 32.10982 20.25820 411 ft 20 kts 57°
2026-05-07 21:41 32.10951 20.25911 412 ft 13 kts 160°
2026-05-07 21:41 32.10858 20.25966 412 ft 25 kts 152°
2026-05-07 21:41 32.10479 20.26226 414 ft 99 kts 149°
2026-05-07 21:42 32.09693 20.26760 417 ft 159 kts 150°
2026-05-07 21:42 32.08655 20.27431 956 ft 172 kts 152°
2026-05-07 21:42 32.07603 20.28089 1830 ft 170 kts 152°
2026-05-07 21:42 32.06523 20.28600 2761 ft 167 kts 171°
2026-05-07 21:43 32.05368 20.28453 3524 ft 172 kts 199°
2026-05-07 21:43 32.04350 20.27657 4146 ft 182 kts 224°
2026-05-07 21:43 32.03675 20.26356 4801 ft 192 kts 245°
2026-05-07 21:43 32.03235 20.24817 5352 ft 205 kts 257°
2026-05-07 21:44 32.03503 20.23122 5886 ft 226 kts 297°
2026-05-07 21:44 32.04783 20.21934 6406 ft 252 kts 338°
2026-05-07 21:44 32.06594 20.21825 6931 ft 273 kts
2026-05-07 21:44 32.08516 20.21891 7452 ft 278 kts 345°
2026-05-07 21:45 32.10259 20.20998 7987 ft 273 kts 319°
2026-05-07 21:45 32.11444 20.19297 8527 ft 268 kts 297°
2026-05-07 21:45 32.12341 20.17368 9085 ft 268 kts 300°
2026-05-07 21:45 32.13375 20.15534 9671 ft 270 kts 306°
2026-05-07 21:46 32.14557 20.13803 10232 ft 273 kts 310°
2026-05-07 21:46 32.15875 20.12106 10765 ft 287 kts 313°
2026-05-07 21:46 32.17316 20.10393 11330 ft 300 kts 314°
2026-05-07 21:46 32.18860 20.08645 11897 ft 314 kts 315°
2026-05-07 21:47 32.20491 20.06848 12482 ft 327 kts 315°
2026-05-07 21:47 32.22204 20.04991 13060 ft 340 kts 315°
2026-05-07 21:47 32.23963 20.03099 13650 ft 353 kts 315°
2026-05-07 21:47 32.25808 20.01122 14205 ft 364 kts 315°
2026-05-07 21:48 32.27744 19.99052 14757 ft 371 kts 316°
2026-05-07 21:48 32.29662 19.97005 15306 ft 373 kts 315°
2026-05-07 21:48 32.31592 19.94945 15863 ft 374 kts 315°
2026-05-07 21:48 32.33528 19.92876 16454 ft 375 kts 315°
2026-05-07 21:49 32.35468 19.90803 17036 ft 376 kts 315°
2026-05-07 21:49 32.37379 19.88689 17643 ft 376 kts 313°
2026-05-07 21:49 32.39189 19.86451 18240 ft 376 kts 310°
2026-05-07 21:49 32.40899 19.84099 18774 ft 377 kts 308°
2026-05-07 21:50 32.42569 19.81677 19304 ft 381 kts 307°
2026-05-07 21:50 32.44231 19.79253 19831 ft 387 kts 307°
2026-05-07 21:50 32.45943 19.76759 20383 ft 393 kts 307°
2026-05-07 21:50 32.47701 19.74189 20952 ft 399 kts 307°
2026-05-07 21:51 32.49435 19.71651 21513 ft 404 kts 307°
2026-05-07 21:51 32.51240 19.69010 22106 ft 409 kts 307°
2026-05-07 21:51 32.53044 19.66369 22704 ft 414 kts 307°
2026-05-07 21:51 32.54868 19.63697 23309 ft 419 kts 307°
2026-05-07 21:52 32.56682 19.61039 23859 ft 423 kts 307°
2026-05-07 21:52 32.58541 19.58313 24383 ft 427 kts 307°
2026-05-07 21:52 32.60417 19.55562 24905 ft 430 kts 307°
2026-05-07 21:52 32.62307 19.52787 25443 ft 434 kts 307°
2026-05-07 21:53 32.64211 19.49990 26000 ft 437 kts 307°
2026-05-07 21:53 32.66128 19.47173 26542 ft 439 kts 307°
2026-05-07 21:53 32.68055 19.44340 27135 ft 442 kts 307°
2026-05-07 21:53 32.69991 19.41492 27713 ft 444 kts 306°
2026-05-07 21:54 32.71934 19.38630 28296 ft 445 kts 306°
2026-05-07 21:54 32.73883 19.35755 28916 ft 447 kts 306°
2026-05-07 21:54 32.75837 19.32873 29532 ft 448 kts 306°
2026-05-07 21:54 32.77794 19.29983 30152 ft 449 kts 306°
2026-05-07 21:55 32.79748 19.27096 30695 ft 449 kts 306°
2026-05-07 21:55 32.81715 19.24206 31251 ft 449 kts 306°
2026-05-07 21:55 32.83697 19.21333 31818 ft 448 kts 306°
2026-05-07 21:55 32.85676 19.18474 32394 ft 446 kts 306°
2026-05-07 21:56 32.87644 19.15628 32982 ft 444 kts 306°
2026-05-07 21:56 32.89600 19.12798 33584 ft 441 kts 306°
2026-05-07 21:56 32.91542 19.09983 34176 ft 438 kts 306°
2026-05-07 21:56 32.93476 19.07177 34612 ft 438 kts 306°
2026-05-07 21:57 32.95406 19.04369 34843 ft 438 kts 305°
2026-05-07 21:57 32.97335 19.01562 35086 ft 437 kts 305°
2026-05-07 21:57 32.99256 18.98763 35327 ft 437 kts 305°
2026-05-07 21:57 33.01178 18.95964 35588 ft 436 kts 305°
2026-05-07 21:58 33.03101 18.93162 35842 ft 436 kts 305°
2026-05-07 21:58 33.05017 18.90365 35995 ft 436 kts 305°
2026-05-07 21:58 33.08855 18.84758 35990 ft 436 kts 305°
2026-05-07 21:59 33.12663 18.79186 35989 ft 436 kts 305°
2026-05-07 21:59 33.16499 18.73566 35982 ft 437 kts 305°
2026-05-07 22:00 33.20342 18.67928 35988 ft 437 kts 305°
2026-05-07 22:00 33.24184 18.62284 35988 ft 437 kts 305°
2026-05-07 22:01 33.28023 18.56635 35980 ft 437 kts 305°
2026-05-07 22:01 33.31856 18.50987 35982 ft 437 kts 305°
2026-05-07 22:02 33.35691 18.45331 35991 ft 437 kts 305°
2026-05-07 22:02 33.39516 18.39672 35979 ft 437 kts 305°
2026-05-07 22:03 33.43327 18.33982 35980 ft 437 kts 304°
2026-05-07 22:03 33.47093 18.28249 35978 ft 437 kts 304°
2026-05-07 22:04 33.50857 18.22513 35978 ft 437 kts 304°
2026-05-07 22:04 33.53984 18.17748 35978 ft 437 kts 304°
2026-05-07 22:05 33.57748 18.12006 35975 ft 437 kts 304°
2026-05-07 22:05 33.61511 18.06259 35979 ft 437 kts 304°
2026-05-07 22:06 33.65271 18.00507 35992 ft 437 kts 304°
2026-05-07 22:06 33.69011 17.94784 35981 ft 434 kts 304°
2026-05-07 22:07 33.72733 17.89069 35974 ft 434 kts 304°
2026-05-07 22:07 33.76449 17.83357 35970 ft 434 kts 304°
2026-05-07 22:08 33.80166 17.77634 35970 ft 434 kts 304°
2026-05-07 22:08 33.83858 17.71944 35971 ft 435 kts 303°
2026-05-07 22:09 33.87607 17.66156 35964 ft 436 kts 303°
2026-05-07 22:09 33.91308 17.60432 35961 ft 436 kts 303°
2026-05-07 22:10 33.95033 17.54665 35960 ft 436 kts 303°
2026-05-07 22:10 33.98749 17.48900 35973 ft 435 kts 303°
2026-05-07 22:11 34.02440 17.43164 35961 ft 433 kts 303°
2026-05-07 22:11 34.06123 17.37423 35969 ft 431 kts 303°
2026-05-07 22:12 34.09791 17.31703 35956 ft 430 kts 303°
2026-05-07 22:12 34.13453 17.25984 35958 ft 430 kts 303°
2026-05-07 22:13 34.17113 17.20261 35955 ft 430 kts 303°
2026-05-07 22:13 34.20770 17.14533 35955 ft 430 kts 303°
2026-05-07 22:14 34.24421 17.08807 35957 ft 430 kts 303°
2026-05-07 22:14 34.28074 17.03071 35958 ft 430 kts 303°
2026-05-07 22:15 34.31727 16.97324 35968 ft 429 kts 303°
2026-05-07 22:15 34.35373 16.91608 35957 ft 428 kts 303°
2026-05-07 22:16 34.39017 16.85951 35958 ft 428 kts 303°
2026-05-07 22:16 34.42684 16.80254 35958 ft 428 kts 303°
2026-05-07 22:17 34.46347 16.74552 35955 ft 428 kts 303°
2026-05-07 22:17 34.50008 16.68845 35968 ft 428 kts 303°
2026-05-07 22:18 34.55494 16.60275 35956 ft 429 kts 303°
2026-05-07 22:19 34.59150 16.54550 35958 ft 429 kts 303°
2026-05-07 22:19 34.62803 16.48820 35978 ft 428 kts 303°
2026-05-07 22:20 34.66439 16.43112 35966 ft 426 kts 302°
2026-05-07 22:20 34.70064 16.37407 35964 ft 426 kts 302°
2026-05-07 22:21 34.73663 16.31738 35965 ft 425 kts 302°
2026-05-07 22:21 34.77270 16.26044 35965 ft 425 kts 302°
2026-05-07 22:22 34.80877 16.20340 35953 ft 425 kts 302°
2026-05-07 22:22 34.84481 16.14631 35955 ft 425 kts 302°
2026-05-07 22:23 34.88083 16.08918 35949 ft 425 kts 302°
2026-05-07 22:23 34.91682 16.03201 35950 ft 425 kts 302°
2026-05-07 22:24 34.95276 15.97484 35952 ft 426 kts 302°
2026-05-07 22:24 34.98885 15.91731 35949 ft 427 kts 302°
2026-05-07 22:25 35.02492 15.85973 35940 ft 427 kts 302°
2026-05-07 22:25 35.06097 15.80211 35942 ft 427 kts 302°
2026-05-07 22:26 35.09702 15.74437 35942 ft 427 kts 302°
2026-05-07 22:26 35.13304 15.68659 35942 ft 427 kts 302°
2026-05-07 22:27 35.16905 15.62877 35940 ft 427 kts 301°
2026-05-07 22:27 35.20481 15.57127 35939 ft 427 kts 301°
2026-05-07 22:28 35.24076 15.51329 35947 ft 427 kts 301°
2026-05-07 22:28 35.27662 15.45544 35937 ft 426 kts 301°
2026-05-07 22:29 35.31242 15.39750 35931 ft 426 kts 301°
2026-05-07 22:29 35.34818 15.33957 35930 ft 426 kts 301°
2026-05-07 22:30 35.38393 15.28160 35955 ft 426 kts 301°
2026-05-07 22:30 35.41963 15.22371 35935 ft 426 kts 300°
2026-05-07 22:31 35.45529 15.16566 35927 ft 425 kts 300°
2026-05-07 22:31 35.49092 15.10759 35929 ft 425 kts 300°
2026-05-07 22:32 35.52653 15.04947 35922 ft 425 kts 300°
2026-05-07 22:32 35.56208 14.99137 35944 ft 425 kts 300°
2026-05-07 22:33 35.59757 14.93330 35928 ft 424 kts 300°
2026-05-07 22:33 35.63300 14.87537 35929 ft 423 kts 299°
2026-05-07 22:34 35.66818 14.81748 35929 ft 422 kts 299°
2026-05-07 22:34 35.70337 14.75950 35922 ft 422 kts 299°
2026-05-07 22:35 35.73857 14.70145 35937 ft 422 kts 299°
2026-05-07 22:35 35.77371 14.64344 35942 ft 422 kts 299°
2026-05-07 22:36 35.80885 14.58534 35940 ft 422 kts 298°
2026-05-07 22:36 35.84396 14.52719 35955 ft 422 kts 298°
2026-05-07 22:37 35.87903 14.46903 35923 ft 421 kts 298°
2026-05-07 22:37 35.91389 14.41114 35917 ft 419 kts 298°
2026-05-07 22:38 35.94866 14.35323 35922 ft 419 kts 298°
2026-05-07 22:38 35.98313 14.29515 35916 ft 417 kts 297°
2026-05-07 22:39 36.01359 14.23469 35919 ft 412 kts 292°
2026-05-07 22:39 36.03897 14.17158 35927 ft 407 kts 287°
2026-05-07 22:40 36.05911 14.10655 35920 ft 402 kts 282°
2026-05-07 22:40 36.07504 14.04039 35918 ft 401 kts 280°
2026-05-07 22:41 36.09049 13.97403 35917 ft 402 kts 280°
2026-05-07 22:41 36.10586 13.90752 35916 ft 402 kts 280°
2026-05-07 22:42 36.12117 13.84100 35943 ft 401 kts 280°
2026-05-07 22:42 36.13631 13.77508 35923 ft 400 kts 279°
2026-05-07 22:43 36.15145 13.70875 35922 ft 400 kts 279°
2026-05-07 22:43 36.16656 13.64239 35922 ft 400 kts 279°
2026-05-07 22:44 36.18163 13.57608 35919 ft 400 kts 279°
2026-05-07 22:44 36.19668 13.50967 35919 ft 400 kts 279°
2026-05-07 22:45 36.21175 13.44312 35922 ft 402 kts 279°
2026-05-07 22:45 36.22680 13.37628 35922 ft 402 kts 279°
2026-05-07 22:46 36.24183 13.30940 35922 ft 402 kts 279°
2026-05-07 22:46 36.25687 13.24246 35932 ft 403 kts 278°
2026-05-07 22:47 36.27181 13.17542 35930 ft 403 kts 278°
2026-05-07 22:47 36.28668 13.10840 35945 ft 402 kts 278°
2026-05-07 22:48 36.30148 13.04159 35933 ft 401 kts 278°
2026-05-07 22:48 36.31623 12.97478 35927 ft 401 kts 278°
2026-05-07 22:49 36.33091 12.90807 35929 ft 401 kts 278°
2026-05-07 22:49 36.34558 12.84130 35934 ft 401 kts 277°
2026-05-07 22:50 36.36012 12.77495 35930 ft 401 kts 277°
2026-05-07 22:50 36.37470 12.70851 35666 ft 395 kts 277°
2026-05-07 22:50 36.38192 12.67539 34770 ft 401 kts 277°
2026-05-07 22:51 36.38926 12.64149 33724 ft 411 kts 276°
2026-05-07 22:51 36.39674 12.60691 32751 ft 417 kts 276°
2026-05-07 22:51 36.40429 12.57199 31882 ft 419 kts 276°
2026-05-07 22:51 36.41189 12.53687 31042 ft 422 kts 276°
2026-05-07 22:52 36.41951 12.50162 30200 ft 424 kts 277°
2026-05-07 22:52 36.42717 12.46611 29289 ft 425 kts 277°
2026-05-07 22:52 36.43482 12.43059 28489 ft 424 kts 277°
2026-05-07 22:52 36.44244 12.39519 27765 ft 423 kts 278°
2026-05-07 22:53 36.45000 12.35989 27080 ft 421 kts 278°
2026-05-07 22:53 36.45754 12.32493 26531 ft 416 kts 278°
2026-05-07 22:53 36.46500 12.29033 26000 ft 412 kts 278°
2026-05-07 22:53 36.47126 12.25593 25532 ft 403 kts 275°
2026-05-07 22:54 36.47453 12.23334 25251 ft 399 kts 274°
2026-05-07 22:54 36.47922 12.19906 24846 ft 394 kts 274°
2026-05-07 22:54 36.48371 12.16611 24464 ft 389 kts 275°
2026-05-07 22:54 36.48827 12.13311 24087 ft 385 kts 275°
2026-05-07 22:55 36.49283 12.10045 23719 ft 381 kts 275°
2026-05-07 22:55 36.49739 12.06808 23318 ft 378 kts 275°
2026-05-07 22:55 36.50194 12.03592 22948 ft 376 kts 275°
2026-05-07 22:55 36.50649 12.00390 22564 ft 375 kts 275°
2026-05-07 22:56 36.51103 11.97194 22197 ft 373 kts 275°
2026-05-07 22:56 36.51554 11.94023 21840 ft 371 kts 275°
2026-05-07 22:56 36.52001 11.90871 21486 ft 369 kts 275°
2026-05-07 22:56 36.52445 11.87736 21131 ft 366 kts 275°
2026-05-07 22:57 36.52886 11.84619 20776 ft 364 kts 275°
2026-05-07 22:57 36.53323 11.81525 20395 ft 362 kts 275°
2026-05-07 22:57 36.53757 11.78446 20004 ft 360 kts 275°
2026-05-07 22:57 36.54187 11.75388 19599 ft 357 kts 275°
2026-05-07 22:58 36.54614 11.72350 19191 ft 355 kts 275°
2026-05-07 22:58 36.55038 11.69326 18781 ft 353 kts 275°
2026-05-07 22:58 36.55458 11.66319 18386 ft 352 kts 275°
2026-05-07 22:58 36.55875 11.63314 17862 ft 352 kts 275°
2026-05-07 22:59 36.56292 11.60317 17378 ft 351 kts 275°
2026-05-07 22:59 36.56709 11.57320 16935 ft 349 kts 275°
2026-05-07 22:59 36.57121 11.54356 16520 ft 346 kts 275°
2026-05-07 22:59 36.57530 11.51412 16160 ft 343 kts 275°
2026-05-07 23:00 36.57935 11.48485 15815 ft 340 kts 275°
2026-05-07 23:00 36.58334 11.45611 15467 ft 333 kts 275°
2026-05-07 23:00 36.58724 11.42795 15159 ft 326 kts 275°
2026-05-07 23:00 36.59105 11.40035 14817 ft 321 kts 275°
2026-05-07 23:01 36.59478 11.37318 14477 ft 316 kts 275°
2026-05-07 23:01 36.59845 11.34642 14141 ft 311 kts 275°
2026-05-07 23:01 36.60205 11.32007 13810 ft 306 kts 275°
2026-05-07 23:01 36.60558 11.29413 13410 ft 303 kts 275°
2026-05-07 23:02 36.60907 11.26831 12937 ft 301 kts 275°
2026-05-07 23:02 36.61256 11.24260 12478 ft 300 kts 275°
2026-05-07 23:02 36.61605 11.21688 11956 ft 301 kts 276°
2026-05-07 23:02 36.61951 11.19142 11633 ft 296 kts 276°
2026-05-07 23:03 36.62292 11.16635 11269 ft 292 kts 276°
2026-05-07 23:03 36.62628 11.14148 10845 ft 290 kts 276°
2026-05-07 23:03 36.62962 11.11674 10440 ft 288 kts 276°
2026-05-07 23:03 36.63290 11.09246 10044 ft 287 kts 276°
2026-05-07 23:04 36.63620 11.06795 9627 ft 286 kts 276°
2026-05-07 23:04 36.63949 11.04354 9185 ft 285 kts 276°
2026-05-07 23:04 36.64276 11.01927 8749 ft 284 kts 276°
2026-05-07 23:04 36.64601 10.99511 8325 ft 283 kts 275°
2026-05-07 23:05 36.64925 10.97098 7898 ft 282 kts 275°
2026-05-07 23:05 36.65246 10.94693 7479 ft 281 kts 275°
2026-05-07 23:05 36.65566 10.92295 7058 ft 280 kts 275°
2026-05-07 23:05 36.65885 10.89903 6655 ft 279 kts 275°
2026-05-07 23:06 36.66202 10.87510 6237 ft 278 kts 275°
2026-05-07 23:06 36.66514 10.85173 6083 ft 268 kts 275°
2026-05-07 23:06 36.66813 10.82922 5929 ft 258 kts 275°
2026-05-07 23:06 36.67101 10.80754 5781 ft 250 kts 275°
2026-05-07 23:07 36.67381 10.78643 5619 ft 242 kts 275°
2026-05-07 23:07 36.67651 10.76605 5460 ft 235 kts 274°
2026-05-07 23:07 36.67914 10.74628 5302 ft 227 kts 274°
2026-05-07 23:07 36.68165 10.72714 5146 ft 220 kts 274°
2026-05-07 23:08 36.68409 10.70865 4994 ft 213 kts 274°
2026-05-07 23:08 36.68645 10.69066 4843 ft 208 kts 274°
2026-05-07 23:08 36.68875 10.67274 4691 ft 210 kts 274°
2026-05-07 23:08 36.69109 10.65470 4541 ft 211 kts 274°
2026-05-07 23:09 36.69345 10.63655 4387 ft 212 kts 274°
2026-05-07 23:09 36.69582 10.61833 4230 ft 213 kts 275°
2026-05-07 23:09 36.69819 10.60009 4086 ft 213 kts 275°
2026-05-07 23:09 36.70054 10.58221 4012 ft 202 kts 275°
2026-05-07 23:10 36.70278 10.56535 4003 ft 195 kts 274°
2026-05-07 23:10 36.70497 10.54863 4010 ft 195 kts 274°
2026-05-07 23:10 36.70713 10.53189 4011 ft 195 kts 274°
2026-05-07 23:10 36.70929 10.51517 4015 ft 195 kts 274°
2026-05-07 23:11 36.71303 10.49882 3985 ft 200 kts 294°
2026-05-07 23:11 36.72178 10.48526 3960 ft 202 kts 317°
2026-05-07 23:11 36.73407 10.47674 3797 ft 203 kts 334°
2026-05-07 23:11 36.74727 10.47063 3558 ft 202 kts 336°
2026-05-07 23:12 36.76049 10.46486 3324 ft 200 kts 338°
2026-05-07 23:12 36.77292 10.45741 3006 ft 197 kts 314°
2026-05-07 23:12 36.78045 10.44350 2725 ft 192 kts 292°
2026-05-07 23:12 36.78550 10.42812 2435 ft 191 kts 288°
2026-05-07 23:13 36.79013 10.41259 2213 ft 189 kts 288°
2026-05-07 23:13 36.79465 10.39803 2176 ft 169 kts 289°
2026-05-07 23:13 36.79895 10.38470 2173 ft 164 kts 289°
2026-05-07 23:13 36.80327 10.37157 2149 ft 164 kts 289°
2026-05-07 23:14 36.80760 10.35848 1935 ft 162 kts 289°
2026-05-07 23:14 36.81192 10.34546 1725 ft 163 kts 289°
2026-05-07 23:14 36.81626 10.33234 1516 ft 163 kts 290°
2026-05-07 23:14 36.82059 10.31928 1308 ft 162 kts 290°
2026-05-07 23:15 36.82487 10.30633 1062 ft 161 kts 291°
2026-05-07 23:15 36.82915 10.29345 824 ft 160 kts 291°
2026-05-07 23:15 36.83333 10.28083 635 ft 158 kts 291°
2026-05-07 23:15 36.83753 10.26804 476 ft 155 kts 291°
2026-05-07 23:16 36.84165 10.25561 241 ft 152 kts 292°
2026-05-07 23:16 36.84571 10.24345 44 ft 151 kts 291°
2026-05-07 23:16 36.84887 10.23411 37 ft 74 kts 291°
2026-05-07 23:16 36.85060 10.22875 41 ft 64 kts 293°
2026-05-07 23:17 36.85180 10.22496 44 ft 22 kts 276°
2026-05-07 23:17 36.85111 10.22430 42 ft 16 kts 190°
2026-05-07 23:17 36.85057 10.22416 40 ft 0 kts 194°
2026-05-07 23:17 36.85051 10.22414 40 ft 3 kts 194°
2026-05-07 23:18 36.85019 10.22403 40 ft 7 kts 194°
2026-05-07 23:18 36.84959 10.22383 39 ft 11 kts 195°
2026-05-07 23:18 36.84872 10.22355 39 ft 15 kts 193°
2026-05-07 23:18 36.84757 10.22321 39 ft 19 kts 193°
2026-05-07 23:19 36.84619 10.22285 39 ft 22 kts 191°
2026-05-07 23:19 36.84515 10.22238 39 ft 6 kts 235°
2026-05-07 23:19 36.84505 10.22206 39 ft 5 kts 252°
2026-05-07 23:19 36.84490 10.22146 39 ft 9 kts 251°
2026-05-07 23:20 36.84465 10.22057 39 ft 11 kts 250°
2026-05-07 23:20 36.84450 10.22002 39 ft 5 kts 253°
2026-05-07 23:20 36.84461 10.21969 39 ft 5 kts 318°
2026-05-07 23:20 36.84501 10.21955 39 ft 3 kts 353°
2026-05-07 23:21 36.84522 10.21953 39 ft 2 kts 355°
2026-05-07 23:21 36.84523 10.21953 39 ft 0 kts 355°